Stations météo

réclame
Mon MeteoGroup
Lüdenscheid, Allemagne (10418): Température de l'air & dewpoint: 13.07.2018 19:00:00 - 19.07.2018 19:00:00 (CEST)Lüdenscheid, Allemagne (10418): Température de l'air 5cm & Température de l'air -5cm: 13.07.2018 19:00:00 - 19.07.2018 19:00:00 (CEST)Lüdenscheid, Allemagne (10418): Température de l'air -20cm & Température de l'air -100cm: 13.07.2018 19:00:00 - 19.07.2018 19:00:00 (CEST)Lüdenscheid, Allemagne (10418): Vitesse du vent & gusts: 13.07.2018 19:00:00 - 19.07.2018 19:00:00 (CEST)Lüdenscheid, Allemagne (10418): Direction du vent: 13.07.2018 19:00:00 - 19.07.2018 19:00:00 (CEST)Lüdenscheid, Allemagne (10418): reduced air pressure: 13.07.2018 19:00:00 - 19.07.2018 19:00:00 (CEST)Lüdenscheid, Allemagne (10418): visibility: 13.07.2018 19:00:00 - 19.07.2018 19:00:00 (CEST)Lüdenscheid, Allemagne (10418): Ensoleillement: 13.07.2018 19:00:00 - 19.07.2018 19:00:00 (CEST)Lüdenscheid, Allemagne (10418): Quantités de précipitations: 13.07.2018 19:00:00 - 19.07.2018 19:00:00 (CEST)
Date & Time tt [°C] td [°C] tt 5cm [°C] tt -5cm [°C] tt -20cm [°C] tt -100cm [°C] ff [km/h] ff [knt] fx [km/h] fx [knt] dd ppp [hPa] vv [km] sd [min] rr [mm]
19.07.2018 19:00:00 24,2 9,0 26,8 27,7 25,1 17,8 4 2 11 6 ESE 1015,7 64 16 0,0
19.07.2018 18:00:00 23,6 8,5 24,7 28,8 24,9 17,8 5 3 12 6 NNE 1016,3 75 1 0,0
19.07.2018 17:00:00 24,1 7,9 26,9 29,7 24,6 17,8 5 3 16 9 SE 1016,6 50 6 0,0
19.07.2018 16:00:00 23,9 7,5 27,0 30,9 24,1 17,8 7 4 21 11 NE 1016,9 59 34 0,0
19.07.2018 15:00:00 25,2 8,2 31,8 30,2 23,6 17,8 7 4 17 9 NW 1016,9 62 18 0,0
19.07.2018 14:00:00 23,6 8,1 29,2 31,0 22,9 17,8 8 4 26 14 ENE 1017,5 60 40 0,0
19.07.2018 13:00:00 22,9 8,9 29,7 29,6 22,3 17,8 8 4 24 13 SE 1017,8 44 50 0,0
19.07.2018 12:00:00 23,3 9,3 30,0 27,4 21,9 17,8 5 3 20 11 ESE 1018,0 49 45 0,0
19.07.2018 11:00:00 22,1 9,4 26,9 24,9 21,7 17,8 6 4 16 9 ENE 1018,4 70 51 0,0
19.07.2018 10:00:00 19,7 10,5 23,9 22,1 21,6 17,8 5 3 9 5 E 1018,8 53 18 0,0
19.07.2018 09:00:00 18,3 10,4 20,9 20,2 21,8 17,8 5 3 9 5 E 1018,8 52 60 0,0
19.07.2018 08:00:00 14,6 10,8 15,1 18,1 22,1 17,7 4 2 6 3 E 1019,2 44 53 0,0
19.07.2018 07:00:00 12,9 9,9 11,5 17,8 22,5 17,7 4 2 5 3 E 1019,4 39 0 0,0
19.07.2018 06:00:00 12,3 9,7 9,4 18,1 22,9 17,7 4 2 5 3 E 1019,5 44 0 0,0
19.07.2018 05:00:00 12,5 9,7 9,8 18,8 23,3 17,7 4 2 6 3 E 1019,6 40 0 0,0
19.07.2018 04:00:00 13,4 9,8 10,4 19,5 23,7 17,7 4 2 5 3 E 1019,4 50 0 0,0
19.07.2018 03:00:00 14,2 9,9 11,5 20,2 24,1 17,7 3 2 6 4 E 1019,4 49 0 0,0
19.07.2018 02:00:00 15,0 9,8 11,7 21,1 24,6 17,7 4 2 6 4 E 1019,2 60 0 0,0
19.07.2018 01:00:00 15,5 9,8 12,6 22,0 25,0 17,7 3 2 5 3 ESE 1019,0 56 0 0,0
19.07.2018 00:00:00 15,9 9,7 13,1 23,1 25,4 17,7 4 2 5 3 ESE 1018,8 62 0 0,0
18.07.2018 23:00:00 17,1 9,5 14,1 24,4 25,8 17,7 3 1 5 3 E 1018,4 59 0 0,0
18.07.2018 22:00:00 18,1 9,4 15,5 26,1 26,0 17,7 4 2 9 5 E 1018,0 54 0 0,0
18.07.2018 21:00:00 20,8 8,5 20,2 27,7 26,1 17,6 5 3 14 7 ENE 1017,4 61 57 0,0
18.07.2018 20:00:00 22,0 8,4 23,9 29,3 26,0 17,6 7 4 16 9 NNE 1017,1 67 34 0,0
18.07.2018 19:00:00 22,0 8,3 23,5 31,5 25,6 17,6 7 4 20 11 WNW 1017,3 60 36 0,0
18.07.2018 18:00:00 23,6 8,3 30,1 32,6 25,2 17,6 6 3 26 14 SSE 1017,0 61 60 0,0
18.07.2018 17:00:00 22,9 8,6 28,7 32,8 24,6 17,6 10 5 22 12 E 1017,5 62 57 0,0
18.07.2018 16:00:00 23,2 8,0 30,7 31,5 24,1 17,6 8 4 21 11 N 1017,6 47 47 0,0
18.07.2018 15:00:00 21,8 8,5 25,2 31,4 23,5 17,6 9 5 20 11 NW 1017,9 57 34 0,0
18.07.2018 14:00:00 22,1 8,4 29,2 30,9 22,9 17,6 6 4 24 13 ENE 1018,1 64 43 0,0
18.07.2018 13:00:00 21,1 8,1 25,7 29,3 22,4 17,6 7 4 21 11 NNE 1018,4 57 43 0,0
18.07.2018 12:00:00 21,1 8,5 27,7 27,5 21,9 17,6 8 5 24 13 NNE 1018,5 51 50 0,0
18.07.2018 11:00:00 19,2 7,3 23,9 25,5 21,7 17,5 9 5 21 11 WNW 1018,7 75 60 0,0
18.07.2018 10:00:00 19,2 8,9 23,3 22,8 21,6 17,5 10 6 19 11 E 1018,7 75 60 0,0
18.07.2018 09:00:00 16,9 10,2 19,6 20,3 21,8 17,5 5 3 8 5 E 1019,1 38 60 0,0
18.07.2018 08:00:00 15,6 11,0 14,9 18,0 22,1 17,5 3 2 5 3 ESE 1018,9 39 55 0,0
18.07.2018 07:00:00 12,8 10,5 11,7 17,8 22,5 17,5 3 2 6 3 WNW 1019,2 23 0 0,0
18.07.2018 06:00:00 12,1 10,1 10,0 18,2 22,9 17,5 4 2 9 5 NNW 1019,0 28 0 0,0
18.07.2018 05:00:00 12,4 10,1 9,9 19,0 23,3 17,5 0 0 8 5 N 1018,7 39 0 0,0
18.07.2018 04:00:00 13,5 10,2 11,2 19,7 23,7 17,5 5 3 9 5 WNW 1018,6 43 0 0,0
18.07.2018 03:00:00 14,5 10,2 12,7 20,6 24,2 17,5 5 3 11 6 WNW 1018,4 56 0 0,0
18.07.2018 02:00:00 14,4 9,9 12,6 21,4 24,6 17,5 6 4 11 6 W 1018,5 52 0 0,0
18.07.2018 01:00:00 15,8 11,7 13,8 22,5 24,9 17,5 4 2 18 10 W 1018,0 48 0 0,0
18.07.2018 00:00:00 17,5 12,5 16,3 23,6 25,3 17,4 6 3 17 9 WNW 1017,5 41 0 0,0
17.07.2018 23:00:00 18,2 13,8 18,0 24,6 25,6 17,4 13 7 21 11 W 1016,8 46 0 0,0
17.07.2018 22:00:00 18,0 13,5 18,0 25,5 25,9 17,4 5 3 37 20 SW 1016,5 49 0 0,0
17.07.2018 21:00:00 21,5 12,5 21,9 27,5 26,0 17,4 13 7 33 18 WSW 1015,3 50 0 0,0
17.07.2018 20:00:00 23,6 10,6 23,6 28,9 26,1 17,4 16 9 23 12 W 1013,9 63 20 0,0
17.07.2018 19:00:00 24,8 9,9 25,9 30,4 26,0 17,4 17 9 32 17 WNW 1013,6 71 30 0,0
17.07.2018 18:00:00 25,9 9,9 28,3 31,4 25,7 17,4 19 10 37 20 WNW 1013,5 62 20 0,0
17.07.2018 17:00:00 25,5 9,3 28,0 33,2 25,2 17,4 21 11 36 19 W 1013,6 70 35 0,0
17.07.2018 16:00:00 27,3 9,6 33,3 34,3 24,5 17,4 18 10 38 20 W 1013,2 75 60 0,0
17.07.2018 15:00:00 27,6 10,7 33,4 33,5 23,8 17,4 19 11 34 18 W 1013,4 75 57 0,0
17.07.2018 14:00:00 27,1 10,7 33,2 32,2 23,2 17,3 22 12 39 21 W 1013,7 49 60 0,0
17.07.2018 13:00:00 26,5 11,0 32,2 30,3 22,6 17,3 21 11 32 18 W 1013,8 - 54 0,0
17.07.2018 12:00:00 24,3 10,6 27,6 28,4 22,1 17,3 19 10 27 15 W 1014,0 - 23 0,0
17.07.2018 11:00:00 25,0 12,1 28,9 26,6 21,8 17,3 11 6 24 13 W 1013,6 - 54 0,0
17.07.2018 10:00:00 22,9 10,8 26,3 23,8 21,7 17,3 9 5 22 12 W 1013,7 - 60 0,0
17.07.2018 09:00:00 21,4 11,5 22,5 21,3 21,9 17,3 14 7 23 13 W 1013,8 29 55 0,0
17.07.2018 08:00:00 18,1 11,4 18,4 19,1 22,2 17,3 5 3 8 4 WNW 1013,9 40 56 0,0
17.07.2018 07:00:00 14,6 10,9 13,6 18,6 22,5 17,3 3 1 5 3 E 1014,1 34 0 0,0
17.07.2018 06:00:00 14,0 10,2 11,2 18,8 22,9 17,3 5 3 6 3 E 1014,0 39 0 0,0
17.07.2018 05:00:00 14,8 10,1 12,5 19,5 23,3 17,3 3 2 4 2 W 1013,7 50 0 0,0
17.07.2018 04:00:00 15,4 9,9 12,1 20,2 23,7 17,3 2 1 5 3 E 1013,5 55 0 0,0
17.07.2018 03:00:00 16,3 10,3 13,5 21,0 24,1 17,3 0 0 4 2 N 1013,7 55 0 0,0
17.07.2018 02:00:00 16,6 10,0 14,9 22,0 24,5 17,2 4 2 6 3 W 1013,8 59 0 0,0
17.07.2018 01:00:00 18,0 9,6 15,0 23,1 24,9 17,2 0 0 7 4 N 1013,5 67 0 0,0
17.07.2018 00:00:00 20,0 9,1 15,9 24,2 25,2 17,2 3 2 4 2 ESE 1013,2 70 0 0,0
16.07.2018 23:00:00 21,3 8,7 19,0 25,5 25,5 17,2 3 2 8 4 E 1012,5 70 0 0,0
16.07.2018 22:00:00 22,4 8,1 20,0 26,9 25,7 17,2 3 2 10 6 ENE 1012,1 70 2 0,0
16.07.2018 21:00:00 24,4 7,3 23,9 28,4 25,7 17,2 4 2 10 5 NNE 1011,3 70 42 0,0
16.07.2018 20:00:00 25,1 6,5 25,7 29,6 25,6 17,2 6 3 13 7 NNE 1010,8 70 33 0,0
16.07.2018 19:00:00 26,2 6,6 28,6 30,9 25,3 17,2 3 1 16 9 NW 1010,5 70 29 0,0
16.07.2018 18:00:00 26,6 6,4 31,4 32,4 24,9 17,2 6 3 27 14 N 1010,6 70 52 0,0
16.07.2018 17:00:00 26,9 7,6 33,0 33,0 24,3 17,2 8 4 20 11 N 1010,5 70 52 0,0
16.07.2018 16:00:00 25,6 8,1 28,9 32,7 23,8 17,2 9 5 19 11 NW 1011,1 70 44 0,0
16.07.2018 15:00:00 25,2 8,9 28,8 31,5 23,2 17,1 8 4 16 9 WNW 1011,7 70 31 0,0
16.07.2018 14:00:00 25,5 9,5 30,6 30,4 22,5 17,1 9 5 19 10 SE 1012,1 68 26 0,0
16.07.2018 13:00:00 25,5 9,4 32,8 30,7 21,8 17,1 9 5 19 10 E 1012,2 41 60 0,0
16.07.2018 12:00:00 25,2 9,0 30,4 28,2 21,3 17,1 9 5 16 9 ESE 1012,6 55 60 0,0
16.07.2018 11:00:00 24,1 8,8 28,6 25,5 20,9 17,1 10 5 16 9 E 1012,7 62 60 0,0
16.07.2018 10:00:00 23,3 11,1 26,0 22,9 20,8 17,1 5 3 9 5 E 1012,9 69 60 0,0
16.07.2018 09:00:00 19,8 10,8 21,8 20,2 20,9 17,1 5 3 6 4 E 1013,8 67 60 0,0
16.07.2018 08:00:00 16,5 11,0 16,7 17,6 21,3 17,1 4 2 5 3 E 1014,2 64 58 0,0
16.07.2018 07:00:00 13,9 8,3 12,2 17,3 21,6 17,1 2 1 5 3 SW 1014,9 70 0 0,0
16.07.2018 06:00:00 13,0 8,8 9,6 17,6 22,0 17,1 3 2 5 3 SE 1015,2 70 0 0,0
16.07.2018 05:00:00 13,0 8,7 9,7 18,2 22,5 17,1 5 3 6 3 ENE 1015,2 70 0 0,0
16.07.2018 04:00:00 13,9 8,6 10,8 18,9 22,9 17,1 4 2 7 4 ENE 1015,2 70 0 0,0
16.07.2018 03:00:00 13,9 8,6 11,4 19,7 23,3 17,1 5 3 8 5 E 1015,5 70 0 0,0
16.07.2018 02:00:00 14,7 8,6 12,5 20,6 23,8 17,1 5 3 9 5 E 1015,9 70 0 0,0
16.07.2018 01:00:00 15,8 8,5 12,9 21,5 24,2 17,1 6 3 9 5 E 1015,9 70 0 0,0
16.07.2018 00:00:00 16,5 8,2 13,6 22,6 24,6 17,1 2 1 13 7 ENE 1015,7 70 0 0,0
15.07.2018 23:00:00 17,5 7,8 15,4 24,0 25,0 17,1 6 3 11 6 ENE 1015,7 70 0 0,0
15.07.2018 22:00:00 19,6 7,4 17,5 25,6 25,2 17,1 7 4 12 7 NE 1015,0 70 3 0,0
15.07.2018 21:00:00 21,8 7,0 21,2 27,3 25,3 17,0 9 5 18 10 NE 1014,4 70 60 0,0
15.07.2018 20:00:00 23,2 6,0 25,4 29,1 25,2 17,0 8 4 21 11 NE 1014,0 70 60 0,0
15.07.2018 19:00:00 24,2 6,0 28,1 30,7 24,9 17,0 7 4 21 12 ENE 1014,1 70 60 0,0
15.07.2018 18:00:00 24,5 5,6 29,5 31,8 24,4 17,0 11 6 22 12 ENE 1014,3 70 60 0,0
15.07.2018 17:00:00 24,6 6,2 30,8 32,7 23,7 17,0 10 5 28 15 ENE 1014,5 70 60 0,0
15.07.2018 16:00:00 24,8 5,7 31,4 32,9 23,0 17,0 8 4 20 11 NNE 1014,8 69 60 0,0
15.07.2018 15:00:00 24,8 7,3 32,0 32,4 22,2 17,0 10 5 26 14 ENE 1015,3 59 60 0,0
15.07.2018 14:00:00 24,7 9,0 31,7 31,0 21,5 17,0 8 4 23 13 N 1015,9 53 60 0,0
15.07.2018 13:00:00 23,4 9,1 29,1 29,0 20,8 17,0 11 6 22 12 E 1016,4 48 60 0,0
15.07.2018 12:00:00 23,1 9,0 27,7 26,9 20,3 17,0 9 5 20 11 E 1016,7 53 60 0,0
15.07.2018 11:00:00 21,3 10,4 25,7 24,4 19,9 17,0 9 5 17 9 E 1016,9 40 60 0,0
15.07.2018 10:00:00 20,7 11,4 22,9 21,5 19,8 17,0 6 4 16 9 NE 1017,2 49 60 0,0
15.07.2018 09:00:00 18,4 12,2 20,2 19,1 19,9 17,0 6 3 8 5 ESE 1017,4 32 60 0,0
15.07.2018 08:00:00 14,9 11,7 15,3 16,8 20,2 17,0 5 3 6 4 E 1018,0 20 59 0,0
15.07.2018 07:00:00 13,8 11,2 11,6 16,4 20,6 17,0 4 2 4 2 ESE 1018,1 16 1 0,0
15.07.2018 06:00:00 12,2 10,7 9,4 16,6 20,9 17,0 4 2 6 3 E 1018,6 14 0 0,0
15.07.2018 05:00:00 12,7 10,9 10,0 17,2 21,3 17,0 3 1 6 4 ESE 1018,7 18 0 0,0
15.07.2018 04:00:00 13,1 10,9 10,1 17,8 21,7 17,0 4 2 7 4 ESE 1018,8 20 0 0,0
15.07.2018 03:00:00 13,1 10,7 11,2 18,6 22,2 17,0 5 3 8 5 E 1018,9 26 0 0,0
15.07.2018 02:00:00 13,8 10,9 11,4 19,4 22,6 17,0 5 3 10 6 E 1019,1 28 0 0,0
15.07.2018 01:00:00 15,2 10,9 12,5 20,4 23,0 17,0 5 3 10 5 NE 1018,9 40 0 0,0
15.07.2018 00:00:00 15,8 11,1 13,5 21,5 23,3 17,0 4 2 10 5 E 1019,0 39 0 0,0
14.07.2018 23:00:00 17,9 11,1 15,3 22,8 23,6 17,0 4 2 8 4 E 1018,6 45 0 0,0
14.07.2018 22:00:00 19,1 11,0 17,1 24,3 23,8 17,0 3 2 15 8 E 1018,2 42 4 0,0
14.07.2018 21:00:00 20,8 11,0 20,3 26,0 23,9 17,0 5 3 18 10 NE 1017,5 41 60 0,0
14.07.2018 20:00:00 22,4 10,7 24,4 27,6 23,7 17,0 6 3 23 12 NNE 1017,2 35 60 0,0
14.07.2018 19:00:00 23,4 11,2 26,3 29,2 23,4 17,0 5 3 21 11 N 1017,2 35 55 0,0
14.07.2018 18:00:00 23,8 11,8 28,1 30,4 23,0 17,0 9 5 25 14 NNE 1017,2 39 58 0,0
14.07.2018 17:00:00 24,9 12,0 30,9 30,7 22,5 17,0 11 6 22 12 NNW 1017,2 25 60 0,0
14.07.2018 16:00:00 24,0 13,1 30,1 28,9 22,0 17,0 8 4 16 9 NW 1017,7 24 25 0,0
14.07.2018 15:00:00 22,3 12,3 24,8 29,2 21,4 17,0 9 5 29 15 WNW 1018,4 22 21 0,0
14.07.2018 14:00:00 23,7 13,4 30,2 29,5 20,9 17,0 14 7 26 14 W 1018,5 17 53 0,0
14.07.2018 13:00:00 21,4 13,6 24,5 27,4 20,3 17,0 6 4 19 10 NNW 1019,2 17 29 0,0
14.07.2018 12:00:00 22,2 13,8 26,4 26,3 19,8 17,0 12 7 26 14 WNW 1019,2 26 43 0,0
14.07.2018 11:00:00 22,8 12,2 26,5 24,1 19,5 17,0 11 6 27 15 WSW 1019,4 33 57 0,0
14.07.2018 10:00:00 21,8 12,1 24,0 21,3 19,4 17,0 11 6 18 10 SW 1019,6 39 42 0,0
14.07.2018 09:00:00 19,1 13,1 20,2 19,4 19,5 17,0 4 2 8 4 SSW 1019,9 29 41 0,0
14.07.2018 08:00:00 16,6 12,6 15,0 17,2 19,7 17,0 0 0 4 2 N 1020,0 16 56 0,0
14.07.2018 07:00:00 13,5 12,0 12,4 16,6 20,0 17,0 0 0 3 2 N 1020,4 13 0 0,0
14.07.2018 06:00:00 12,4 11,7 10,5 16,8 20,4 17,0 2 1 3 2 ESE 1020,5 10 0 0,0
14.07.2018 05:00:00 12,3 11,4 10,5 17,3 20,8 17,1 2 1 6 3 ESE 1020,8 12 0 0,0
14.07.2018 04:00:00 13,9 11,9 11,4 18,0 21,1 17,1 3 2 5 3 E 1020,4 23 0 0,0
14.07.2018 03:00:00 13,5 11,8 11,7 18,6 21,5 17,1 3 2 6 4 E 1020,5 20 0 0,0
14.07.2018 02:00:00 14,2 11,6 12,0 19,3 21,9 17,1 3 2 5 3 ESE 1020,5 27 0 0,0
14.07.2018 01:00:00 15,4 11,6 12,7 20,2 22,3 17,1 4 2 5 3 E 1020,5 30 0 0,0
14.07.2018 00:00:00 16,9 11,4 13,8 21,3 22,7 17,1 3 1 3 2 ENE 1020,2 42 0 0,0
13.07.2018 23:00:00 18,0 11,4 15,0 22,6 23,0 17,1 3 2 4 2 NE 1019,9 46 0 0,0
13.07.2018 22:00:00 18,9 11,1 15,5 24,1 23,2 17,1 3 2 7 4 ENE 1019,4 55 0 0,0
13.07.2018 21:00:00 20,9 10,7 19,7 25,9 23,2 17,1 5 3 11 6 NNE 1018,8 54 55 0,0
13.07.2018 20:00:00 22,6 10,4 24,1 27,4 23,0 17,1 5 3 15 8 N 1018,7 54 58 0,0
13.07.2018 19:00:00 23,0 9,2 26,3 29,1 22,7 17,1 9 5 16 9 N 1018,8 55 60 0,0

tt = Température de l'air
td = dewpoint
tt 5cm = Température de l'air 5cm
tt -5cm = Température de l'air -5cm
tt -20cm = Température de l'air -20cm
tt -100cm = Température de l'air -100cm
ff = Vitesse du vent
fx = gusts
dd = Direction du vent
ppp = reduced air pressure
vv = visibility
sd = Ensoleillement
rr = Quantités de précipitations

stations d'obs. à proximité